Regional Weather Roundup
Issued by NWS

Home | Current Version | Previous Version | Text Only | Print | Product List | Glossary On
Versions: 1 2 3 4 5 6 7 8 9 10 11 12 13 14 15 16 17 18 19 20 21 22 23 24 25 26 27 28 29 30 31 32 33 34 35 36 37 38 39 40 41 42 43 44 45 46 47 48 49 50
000
ASUS45 KBOU 301107
RWRCO

WEATHER ROUNDUP FOR COLORADO
NATIONAL WEATHER SERVICE DENVER/BOULDER CO
500 AM MDT SAT MAY 30 2015

NOTE: "FAIR" INDICATES FEW OR NO CLOUDS BELOW 12000 FEET WITH NO
SIGNIFICANT WEATHER AND/OR OBSTRUCTIONS TO VISIBILITY.

COZ001>005-013-030-031-301200-
...NORTHWEST COLORADO...

CITY           SKY/WX    TMP DP  RH WIND       PRES   REMARKS
CRAIG          CLEAR     35  33  92 CALM      30.31R
HAYDEN         CLEAR     39  34  81 E9        30.31S
MEEKER         CLEAR     38  35  89 CALM      30.31R
MOUNT WERNER   NOT AVBL
STEAMBOAT SPGS CLEAR     35  33  95 CALM      30.33S
WALDEN         CLEAR     32  30  93 SE5       30.37R WCI  27
$$

COZ006>008-011-301200-
...WEST CENTRAL VALLEYS...

CITY           SKY/WX    TMP DP  RH WIND       PRES   REMARKS
GRAND JUNCTION CLEAR     51  41  68 SE5       30.21R
MONTROSE       CLEAR     47  37  68 SE8       30.28R
EAGLE          CLEAR     48  46  93 CALM      30.38R
RIFLE          CLEAR     42  37  82 E3        30.28R
DELTA          CLEAR     49  39  69 NE9       30.25R
NUCLA          CLEAR     45  36  70 CALM      30.30R
$$

COZ017>023-064>068-301200-
...SOUTHWEST COLORADO...

CITY           SKY/WX    TMP DP  RH WIND       PRES   REMARKS
DURANGO        CLEAR     39  32  76 CALM      30.27R
CORTEZ         CLEAR     39  33  79 E3        30.25R
PAGOSA SPRINGS CLEAR     39  30  70 CALM      30.33R
TELLURIDE      CLEAR     39  31  73 SE3       30.41S
WOLF CREEK PAS NOT AVBL
$$

COZ009-010-012-014-032>034-037-058>063-301200-
...CENTRAL COLORADO...

CITY           SKY/WX    TMP DP  RH WIND       PRES   REMARKS
ASPEN          CLEAR     36  32  85 S5        30.35S
BUENA VISTA    CLOUDY    42  33  71 NW6       30.40S
COPPER MTN     PTCLDY    36  23  60 S6        30.51S
BERTHOUD PASS  FAIR      27  19  74 NW17      30.52S WCI  14
COTTONWOOD PAS MOCLDY    39  36  87 CALM      30.45S
GUNNISON       CLEAR     36  28  75 N3        30.40R
KREMMLING      CLEAR     32  30  93 CALM      30.39S
LEADVILLE      PTCLDY    28  26  92 CALM      30.44R
MONARCH PASS   FOG       32  30  93 MISG      30.61S VSB<1/4
SALIDA         PTCLDY    43  39  86 CALM      30.45S
SUNLIGHT       CLEAR     37  30  75 CALM      30.50R
WILKERSON PASS SNOW      32  32 100 SW8       30.50F VSB 1/4 WCI  25
$$

COZ069>075-301200-
...SAN LUIS VALLEY/SANGRE DE CRISTO MOUNTAINS...

CITY           SKY/WX    TMP DP  RH WIND       PRES   REMARKS
ALAMOSA        CLEAR     36  33  89 W6        30.35R
LA VETA PASS   FOG      N/A N/A N/A MISG      30.45S VSB 3/4
SAGUACHE       CLEAR     37  32  81 N9        30.38R
$$

COZ035-036-038>040-301200-
...NORTHERN COLORADO FRONT RANGE...

CITY           SKY/WX    TMP DP  RH WIND       PRES   REMARKS
DENVER INTL AP PTCLDY    41  39  93 SE6       30.29F
DMNS CITY PARK   N/A     46  42  84 S1        30.28S
AURORA         PTCLDY    43  42  97 SE6       30.30F
FRONT RANGE AP CLEAR     45  43  93 MISG      30.30F
ERIE MUNI ARPT CLEAR     44  43  95 CALM      30.29S
BOULDER MUN AP MOCLDY    50  46  87 CALM      30.28F
CENTENNIAL     PTCLDY    45  42  89 S5        30.29F
BROOMFIELD     CLEAR     46  45  93 CALM      30.30S
FORT COLLINS   MOCLDY    48  45  87 SE5       30.29F
LONGMONT       CLOUDY    52  48  85 CALM      30.30F
$$

COZ041-046-047-076>085-087-088-301200-
...PIKES PEAK/PALMER DIVIDE AND SOUTHERN FOOTHILLS...

CITY           SKY/WX    TMP DP  RH WIND       PRES   REMARKS
COLO. SPRINGS  CLOUDY    46  44  93 S5        30.34F
A. F. ACADEMY  CLOUDY    45  45  99 S7        30.33F
ELLICOTT       PTCLDY   N/A N/A N/A CALM      30.32F
FALCON         FOG       43  43  99 SW8       30.35F VSB 1/4
FORT CARSON    MOCLDY    46 N/A N/A S6        30.32F
LIMON          CLEAR     40  40 100 NW7       30.31S
MONUMENT HILL  CLEAR     37  37 100 E5        30.34F
TRINIDAD       CLEAR     46  44  93 W6        30.32F
$$

COZ042>045-048>051-090-091-301200-
...NORTHEAST COLORADO...

CITY           SKY/WX    TMP DP  RH WIND       PRES   REMARKS
GREELEY ARPT   MOCLDY    45  45 100 E3        30.30S
AKRON          CLOUDY    47  43  86 NW3       30.30F
BURLINGTON     CLOUDY    48  45  89 N10       30.28F
WRAY           CLOUDY    48  44  88 NW7       30.30S
STERLING       CLOUDY    48  45  87 CALM      30.30R
HOLYOKE        CLOUDY    50  43  76 CALM      30.30F
FORT MORGAN    CLOUDY    45  42  91 CALM      30.31S
$$

COZ086-089-092>099-301200-
...SOUTHEAST COLORADO...

CITY           SKY/WX    TMP DP  RH WIND       PRES   REMARKS
PUEBLO         CLOUDY    51  48  89 CALM      30.31S
LA JUNTA       PTCLDY    50  47  89 N6        30.28F
LAMAR          MOCLDY    47  46  97 CALM      30.26R
SPRINGFIELD      N/A     50  47  89 N13       30.29R
$$


USA.gov is the U.S. government's official web portal to all federal, state and local government web resources and services.